• In Denmark
  • List of Countries
  • For 7 days
  • Water Temperature
  • Satellite Maps
  • Weather Map
  • Weather Widgets
  • user-avatar
    Login

    Hourly Weather Jakubik

    Today, 23 September, Sunday

    Time Temperature Precipitation Wind Pressure Humidity
    00:00 +8°C° 0 mm 1 mps 699 mmHg 77%
    01:00 +8°C° 0 mm 1 mps 698 mmHg 78%
    02:00 +8°C° 0 mm 1 mps 698 mmHg 80%
    03:00 +7°C° 0 mm 2 mps 698 mmHg 82%
    04:00 +6°C° 0 mm 2 mps 698 mmHg 84%
    05:00 +7°C° 0 mm 2 mps 698 mmHg 82%
    06:00 +7°C° 0 mm 2 mps 698 mmHg 80%
    07:00 +8°C° 0 mm 2 mps 698 mmHg 78%
    08:00 +9°C° 0 mm 2 mps 698 mmHg 71%
    09:00 +11°C° 0 mm 3 mps 698 mmHg 63%
    10:00 +13°C° 0 mm 3 mps 698 mmHg 55%
    11:00 +13°C° 0 mm 3 mps 698 mmHg 54%
    12:00 +14°C° 0 mm 3 mps 698 mmHg 53%
    13:00 +14°C° 0 mm 3 mps 698 mmHg 51%
    14:00 +14°C° 0 mm 3 mps 697 mmHg 56%
    15:00 +13°C° 0 mm 3 mps 696 mmHg 62%
    16:00 +12°C° 0 mm 3 mps 696 mmHg 67%
    17:00 +12°C° 0.1 mm 3 mps 695 mmHg 70%
    18:00 +11°C° 0.1 mm 3 mps 694 mmHg 72%
    19:00 +10°C° 0.1 mm 4 mps 693 mmHg 75%
    20:00 +11°C° 0 mm 4 mps 692 mmHg 72%
    21:00 +12°C° 0 mm 5 mps 691 mmHg 70%
    22:00 +11°C° 0 mm 6 mps 690 mmHg 67%
    23:00 +11°C° 1.3 mm 6 mps 690 mmHg 73%

    Tomorrow, 24 September, Monday

    Time Temperature Precipitation Wind Pressure Humidity
    00:00 +12°C° 1.3 mm 5 mps 689 mmHg 79%
    01:00 +10°C° 1.3 mm 5 mps 688 mmHg 85%
    02:00 +10°C° 2.9 mm 5 mps 688 mmHg 88%
    03:00 +10°C° 2.9 mm 5 mps 689 mmHg 90%
    04:00 +10°C° 2.9 mm 5 mps 689 mmHg 93%
    05:00 +8°C° 0.8 mm 5 mps 690 mmHg 91%
    06:00 +7°C° 0.8 mm 6 mps 691 mmHg 90%
    07:00 +4°C° 0.8 mm 6 mps 692 mmHg 88%
    08:00 +5°C° 0.3 mm 6 mps 694 mmHg 85%
    09:00 +5°C° 0.3 mm 6 mps 695 mmHg 82%
    10:00 +5°C° 0.3 mm 7 mps 696 mmHg 79%
    11:00 +6°C° 0.1 mm 7 mps 697 mmHg 72%
    12:00 +6°C° 0.1 mm 7 mps 697 mmHg 65%
    13:00 +8°C° 0.1 mm 7 mps 697 mmHg 58%
    14:00 +8°C° 0.1 mm 7 mps 698 mmHg 58%
    15:00 +6°C° 0.1 mm 7 mps 698 mmHg 59%
    16:00 +5°C° 0.1 mm 6 mps 698 mmHg 60%
    17:00 +4°C° 0 mm 6 mps 699 mmHg 64%
    18:00 +3°C° 0 mm 5 mps 699 mmHg 68%
    19:00 +3°C° 0 mm 4 mps 699 mmHg 72%
    20:00 +1°C° 0 mm 4 mps 699 mmHg 72%
    21:00 +1°C° 0 mm 4 mps 699 mmHg 72%
    22:00 +1°C° 0 mm 4 mps 700 mmHg 72%
    23:00 +1°C° 0.5 mm 5 mps 700 mmHg 76%

    Day after tomorrow, 25 September, Tuesday

    Time Temperature Precipitation Wind Pressure Humidity
    00:00 +1°C° 0.5 mm 5 mps 700 mmHg 80%
    01:00 +1°C° 0.5 mm 5 mps 700 mmHg 84%
    02:00 +1°C° 0.2 mm 5 mps 701 mmHg 85%
    03:00 0°C° 0.2 mm 5 mps 701 mmHg 87%
    04:00 0°C° 0.2 mm 4 mps 702 mmHg 88%
    05:00 +1°C° 0 mm 4 mps 703 mmHg 86%
    06:00 +1°C° 0 mm 5 mps 703 mmHg 85%
    07:00 +1°C° 0 mm 5 mps 704 mmHg 84%
    08:00 +2°C° 0.1 mm 5 mps 705 mmHg 76%
    09:00 +3°C° 0.1 mm 5 mps 705 mmHg 68%
    10:00 +5°C° 0.1 mm 6 mps 706 mmHg 60%
    11:00 +5°C° 0.2 mm 6 mps 706 mmHg 59%
    12:00 +5°C° 0.2 mm 6 mps 706 mmHg 57%
    13:00 +5°C° 0.2 mm 6 mps 707 mmHg 56%
    14:00 +6°C° 0.1 mm 5 mps 707 mmHg 57%
    15:00 +6°C° 0.1 mm 5 mps 707 mmHg 58%
    16:00 +5°C° 0.1 mm 4 mps 707 mmHg 60%
    17:00 +4°C° 0 mm 3 mps 707 mmHg 66%
    18:00 +2°C° 0 mm 3 mps 707 mmHg 72%
    19:00 +2°C° 0 mm 2 mps 708 mmHg 79%
    20:00 +2°C° 0 mm 2 mps 708 mmHg 80%
    21:00 +1°C° 0 mm 2 mps 708 mmHg 81%
    22:00 +1°C° 0 mm 2 mps 709 mmHg 83%
    23:00 -1°C° 0 mm 2 mps 709 mmHg 83%

    26 September, Wednesday

    Time Temperature Precipitation Wind Pressure Humidity
    00:00 +1°C° 0 mm 1 mps 709 mmHg 83%
    01:00 +1°C° 0 mm 1 mps 709 mmHg 83%
    02:00 0°C° 0 mm 1 mps 709 mmHg 84%
    03:00 0°C° 0 mm 1 mps 709 mmHg 84%
    04:00 0°C° 0 mm 1 mps 709 mmHg 84%
    05:00 +1°C° 0 mm 1 mps 709 mmHg 80%
    06:00 +2°C° 0 mm 1 mps 709 mmHg 76%
    07:00 +3°C° 0 mm 1 mps 710 mmHg 72%
    08:00 +5°C° 0 mm 1 mps 710 mmHg 61%
    09:00 +8°C° 0 mm 1 mps 710 mmHg 51%
    10:00 +10°C° 0 mm 1 mps 711 mmHg 40%
    11:00 +11°C° 0 mm 1 mps 710 mmHg 38%
    12:00 +12°C° 0 mm 1 mps 710 mmHg 36%
    13:00 +12°C° 0 mm 2 mps 710 mmHg 34%
    14:00 +12°C° 0 mm 1 mps 709 mmHg 38%
    15:00 +12°C° 0 mm 1 mps 709 mmHg 43%
    16:00 +11°C° 0 mm 1 mps 708 mmHg 48%
    17:00 +10°C° 0 mm 1 mps 708 mmHg 52%
    18:00 +8°C° 0 mm 1 mps 707 mmHg 56%
    19:00 +6°C° 0 mm 2 mps 707 mmHg 60%
    20:00 +6°C° 0 mm 2 mps 707 mmHg 62%
    21:00 +6°C° 0 mm 2 mps 707 mmHg 64%
    22:00 +6°C° 0 mm 2 mps 707 mmHg 66%
    23:00 +6°C° 0 mm 2 mps 706 mmHg 66%

    27 September, Thursday

    Time Temperature Precipitation Wind Pressure Humidity
    00:00 +5°C° 0 mm 2 mps 706 mmHg 66%
    01:00 +5°C° 0 mm 2 mps 706 mmHg 66%
    02:00 +6°C° 0 mm 2 mps 706 mmHg 64%
    03:00 +6°C° 0 mm 2 mps 705 mmHg 62%
    04:00 +6°C° 0 mm 2 mps 705 mmHg 60%
    05:00 +6°C° 0 mm 2 mps 705 mmHg 60%
    06:00 +6°C° 0 mm 2 mps 705 mmHg 59%
    07:00 +7°C° 0 mm 2 mps 705 mmHg 58%
    08:00 +9°C° 0 mm 2 mps 705 mmHg 52%
    09:00 +12°C° 0 mm 2 mps 705 mmHg 46%
    10:00 +14°C° 0 mm 2 mps 706 mmHg 40%
    11:00 +14°C° 0 mm 3 mps 705 mmHg 38%
    12:00 +16°C° 0 mm 3 mps 705 mmHg 36%
    13:00 +17°C° 0 mm 3 mps 705 mmHg 35%
    14:00 +17°C° 0 mm 2 mps 705 mmHg 40%
    15:00 +16°C° 0 mm 2 mps 704 mmHg 44%
    16:00 +16°C° 0 mm 2 mps 704 mmHg 49%
    17:00 +14°C° 0 mm 2 mps 704 mmHg 54%
    18:00 +11°C° 0 mm 1 mps 703 mmHg 58%
    19:00 +9°C° 0 mm 1 mps 703 mmHg 63%
    20:00 +9°C° 0 mm 1 mps 703 mmHg 64%
    21:00 +9°C° 0 mm 1 mps 703 mmHg 65%
    22:00 +8°C° 0 mm 1 mps 703 mmHg 66%
    23:00 +8°C° 0 mm 1 mps 703 mmHg 66%

    28 September, Friday

    Time Temperature Precipitation Wind Pressure Humidity
    00:00 +8°C° 0 mm 1 mps 702 mmHg 67%
    01:00 +8°C° 0 mm 1 mps 702 mmHg 68%
    02:00 +7°C° 0 mm 1 mps 702 mmHg 69%
    03:00 +7°C° 0 mm 1 mps 701 mmHg 70%
    04:00 +6°C° 0 mm 2 mps 701 mmHg 70%
    05:00 +7°C° 0 mm 2 mps 701 mmHg 69%
    06:00 +7°C° 0 mm 2 mps 701 mmHg 68%
    07:00 +8°C° 0 mm 2 mps 701 mmHg 66%
    08:00 +10°C° 0 mm 2 mps 701 mmHg 59%
    09:00 +13°C° 0 mm 2 mps 701 mmHg 53%
    10:00 +16°C° 0 mm 2 mps 702 mmHg 46%
    11:00 +17°C° 0 mm 2 mps 701 mmHg 44%
    12:00 +18°C° 0 mm 2 mps 701 mmHg 42%
    13:00 +19°C° 0 mm 2 mps 701 mmHg 39%
    14:00 +18°C° 0 mm 2 mps 700 mmHg 43%
    15:00 +17°C° 0 mm 2 mps 699 mmHg 46%
    16:00 +17°C° 0 mm 2 mps 699 mmHg 50%
    17:00 +14°C° 0 mm 2 mps 698 mmHg 55%
    18:00 +12°C° 0 mm 2 mps 698 mmHg 59%
    19:00 +9°C° 0 mm 2 mps 698 mmHg 64%
    20:00 +9°C° 0 mm 2 mps 697 mmHg 66%
    21:00 +8°C° 0 mm 2 mps 697 mmHg 67%
    22:00 +9°C° 0 mm 1 mps 697 mmHg 69%
    23:00 +8°C° 0 mm 1 mps 697 mmHg 70%
    Show more